Location: Unspecified
(0.0000°N, 0.0000°E)
Time: 23:59:27
(UTC+00:00)

USA 200 - Visible Passes

Search period start: 06 June 2023 00:00
Search period end: 16 June 2023 00:00
Orbit: 1801 x 38554 km, 63.7° (Epoch: 28 February)

Date Brightness Start Highest point End Pass type
(mag) Time Alt. Az. Time Alt. Az. Time Alt. Az.
06 Jun ? 15:30:09 10° SW 16:00:41 45° WNW 02:54:08 10° S visible
07 Jun ? 15:25:46 10° SW 15:56:17 45° WNW 02:35:43 63° SW visible
08 Jun ? 15:21:22 10° SW 15:51:53 45° WNW 02:30:05 65° SW visible
09 Jun ? 15:16:58 10° SW 15:47:29 45° WNW 02:24:38 66° WSW visible
10 Jun ? 15:12:34 10° SW 15:43:05 45° WNW 02:19:19 67° WSW visible
11 Jun ? 15:08:11 10° SW 15:38:42 45° WNW 02:14:07 67° WSW visible
12 Jun ? 15:03:47 10° SW 15:34:18 45° WNW 02:08:59 67° WSW visible
13 Jun ? 14:59:23 10° SW 15:29:54 45° WNW 02:03:57 67° W visible
14 Jun ? 14:54:59 10° SW 15:25:30 45° WNW 01:58:59 67° W visible
